Stations météo

réclame
Mon MeteoGroup
Pembrey Sands, Grande-Bretagne (3605): Température de l'air & dewpoint: 22.10.2020 14:00:00 - 28.10.2020 14:00:00 (GMT)Pembrey Sands, Grande-Bretagne (3605): Vitesse du vent & gusts: 22.10.2020 14:00:00 - 28.10.2020 14:00:00 (GMT)Pembrey Sands, Grande-Bretagne (3605): Direction du vent: 22.10.2020 14:00:00 - 28.10.2020 14:00:00 (GMT)Pembrey Sands, Grande-Bretagne (3605): reduced air pressure: 22.10.2020 14:00:00 - 28.10.2020 14:00:00 (GMT)Pembrey Sands, Grande-Bretagne (3605): visibility: 22.10.2020 14:00:00 - 28.10.2020 14:00:00 (GMT)Pembrey Sands, Grande-Bretagne (3605): Quantités de précipitations: 22.10.2020 14:00:00 - 28.10.2020 14:00:00 (GMT)
Date & Time tt [°C] td [°C] ff [km/h] ff [knt] fx [km/h] fx [knt] dd ppp [hPa] vv [km] rr [mm]
28.10.2020 14:00:00 - - - - - - - - - -
28.10.2020 13:00:00 11,5 8,6 37 20 50 27 WSW 1000,2 12 0,0
28.10.2020 12:00:00 9,8 7,7 41 22 70 38 W 1000,2 19 1,2
28.10.2020 11:00:00 10,8 8,9 39 21 100 54 WSW 999,7 17 1,4
28.10.2020 10:00:00 11,9 8,2 46 25 80 43 SW 999,0 12 0,2
28.10.2020 09:00:00 11,0 6,5 48 26 67 36 SW 998,8 19 0,0
28.10.2020 08:00:00 11,7 6,6 59 32 74 40 WSW 998,6 14 0,0
28.10.2020 07:00:00 11,8 8,0 57 31 68 37 WSW 997,7 9 1,8
28.10.2020 06:00:00 9,5 8,3 41 22 91 49 W 998,1 3,3 3,0
28.10.2020 05:00:00 11,7 7,5 48 26 68 37 SW 997,7 8 0,0
28.10.2020 04:00:00 11,6 8,3 46 25 68 37 WSW 997,6 7 0,0
28.10.2020 03:00:00 11,2 7,6 46 25 65 35 WSW 997,6 7 0,0
28.10.2020 02:00:00 10,9 7,0 59 32 68 37 WSW 997,6 12 0,2
28.10.2020 01:00:00 9,7 6,3 50 27 70 38 WSW 997,4 1,6 0,8
28.10.2020 00:00:00 9,9 7,7 42 23 74 40 W 997,5 4,7 0,4
27.10.2020 23:00:00 11,8 7,5 55 30 72 39 WSW 997,0 16 0,0
27.10.2020 22:00:00 11,9 7,8 52 28 65 35 WSW 997,0 15 0,2
27.10.2020 21:00:00 10,8 6,7 54 29 72 39 WSW 997,1 11 0,0
27.10.2020 20:00:00 11,8 6,7 50 27 63 34 WSW 996,6 15 0,0
27.10.2020 19:00:00 12,0 6,7 42 23 63 34 W 996,2 14 0,0
27.10.2020 18:00:00 12,1 6,6 46 25 65 35 W 995,8 12 0,0
27.10.2020 17:00:00 12,3 6,9 50 27 65 35 W 995,3 10 0,0
27.10.2020 16:00:00 12,4 7,0 42 23 55 30 W 994,7 14 0,0
27.10.2020 15:00:00 11,1 8,4 52 28 74 40 W 994,5 5 0,0
27.10.2020 14:00:00 12,9 7,9 54 29 67 36 W 993,8 11 0,0
27.10.2020 13:00:00 12,7 11,2 31 17 57 31 W 993,0 - 0,0
27.10.2020 12:00:00 13,5 11,7 46 25 67 36 W 992,4 11 0,0
27.10.2020 11:00:00 13,2 13,1 44 24 54 29 WSW 991,9 - 0,2
27.10.2020 10:00:00 13,2 13,2 44 24 63 34 SSW 991,4 1,9 0,6
27.10.2020 09:00:00 12,0 12,0 46 25 63 34 S 991,9 2,0 0,8
27.10.2020 08:00:00 11,1 11,1 44 24 54 29 S 993,0 2,2 0,4
27.10.2020 07:00:00 10,4 10,4 44 24 61 33 S 994,2 2,5 0,6
27.10.2020 06:00:00 10,8 10,7 50 27 55 30 S 995,6 1,4 0,8
27.10.2020 05:00:00 10,8 10,6 37 20 48 26 SSW 996,7 7 0,4
27.10.2020 04:00:00 11,0 9,7 37 20 46 25 SSW 997,7 8 0,4
27.10.2020 03:00:00 11,5 9,0 39 21 - - SW 998,8 7 0,0
27.10.2020 02:00:00 11,3 8,4 15 8 - - WSW 999,9 15 0,0
27.10.2020 01:00:00 10,2 7,7 15 8 - - WSW 1000,6 14 0,2
27.10.2020 00:00:00 9,8 8,9 28 15 - - WSW 1001,2 13 0,0
26.10.2020 23:00:00 9,2 6,7 8 4 - - WNW 1001,4 30 0,0
26.10.2020 22:00:00 10,3 8,3 22 12 - - W 1002,0 18 0,0
26.10.2020 21:00:00 10,0 7,8 16 9 - - W 1001,8 20 0,0
26.10.2020 20:00:00 10,7 8,4 26 14 - - W 1001,3 17 0,0
26.10.2020 19:00:00 10,9 8,7 21 11 - - W 1001,2 10 0,0
26.10.2020 18:00:00 11,5 8,7 29 16 - - W 1001,0 12 0,0
26.10.2020 17:00:00 12,0 8,7 37 20 48 26 W 1000,5 12 0,0
26.10.2020 16:00:00 12,1 8,4 34 18 - - W 1000,2 8 0,0
26.10.2020 15:00:00 13,2 9,0 28 15 50 27 W 999,9 6 0,0
26.10.2020 14:00:00 12,8 8,3 39 21 48 26 W 999,5 9 0,0
26.10.2020 13:00:00 13,0 8,7 37 20 52 28 WNW 999,4 9 0,0
26.10.2020 12:00:00 12,6 8,0 41 22 55 30 WNW 999,2 18 0,0
26.10.2020 11:00:00 12,5 8,0 42 23 54 29 WNW 998,6 23 0,0
26.10.2020 10:00:00 11,6 8,5 39 21 54 29 W 997,8 21 0,0
26.10.2020 09:00:00 11,1 8,5 41 22 50 27 W 997,0 27 0,2
26.10.2020 08:00:00 10,6 8,7 37 20 54 29 WNW 996,0 35 0,0
26.10.2020 07:00:00 10,8 9,7 42 23 63 34 W 994,8 12 0,0
26.10.2020 06:00:00 11,1 9,4 39 21 55 30 W 994,2 11 0,2
26.10.2020 05:00:00 10,9 9,2 39 21 54 29 W 994,0 9 0,4
26.10.2020 04:00:00 11,0 8,4 28 15 - - W 993,9 6 0,2
26.10.2020 03:00:00 10,8 8,3 31 17 - - W 993,9 12 0,0
26.10.2020 02:00:00 10,1 8,2 28 15 54 29 W 994,0 6 0,4
26.10.2020 01:00:00 11,2 7,5 42 23 68 37 W 993,8 13 0,0
26.10.2020 00:00:00 11,4 8,0 34 18 46 25 W 994,0 9 0,0
25.10.2020 23:00:00 11,1 8,1 39 21 48 26 W 994,0 14 0,0
25.10.2020 22:00:00 11,3 8,2 41 22 63 34 WSW 994,1 18 0,2
25.10.2020 21:00:00 11,4 7,8 37 20 48 26 WSW 994,0 15 0,0
25.10.2020 20:00:00 11,1 6,9 31 17 54 29 WSW 994,1 30 0,2
25.10.2020 19:00:00 10,8 7,9 29 16 - - W 993,9 17 0,2
25.10.2020 18:00:00 11,1 7,8 29 16 54 29 WSW 993,5 18 0,0
25.10.2020 17:00:00 11,4 7,9 39 21 50 27 WSW 993,2 14 0,0
25.10.2020 16:00:00 11,9 7,4 41 22 54 29 WSW 993,0 13 0,0
25.10.2020 15:00:00 10,8 8,6 37 20 63 34 WSW 992,5 14 0,4
25.10.2020 14:00:00 11,9 8,5 35 19 50 27 WSW 992,4 12 0,2
25.10.2020 13:00:00 11,1 8,0 41 22 63 34 W 993,0 11 0,0
25.10.2020 12:00:00 11,0 7,4 28 15 68 37 W 992,9 7 0,2
25.10.2020 11:00:00 12,3 7,7 37 20 48 26 SW 992,9 14 0,0
25.10.2020 10:00:00 11,6 6,9 44 24 61 33 WSW 992,9 19 0,0
25.10.2020 09:00:00 11,2 7,8 39 21 52 28 SW 992,9 16 0,0
25.10.2020 08:00:00 10,2 7,9 37 20 72 39 SW 992,7 16 1,4
25.10.2020 07:00:00 11,0 7,5 44 24 55 30 SW 992,1 16 0,0
25.10.2020 06:00:00 10,6 7,2 46 25 59 32 WSW 992,0 20 2,6
25.10.2020 05:00:00 9,6 6,5 54 29 78 42 W 991,7 3,5 0,0
25.10.2020 04:00:00 11,8 7,8 57 31 70 38 SW 991,5 11 0,0
25.10.2020 03:00:00 11,2 9,0 52 28 85 46 SW 991,7 8 2,0
25.10.2020 02:00:00 12,0 7,7 48 26 68 37 SW 992,3 12 0,0
25.10.2020 01:00:00 12,0 7,0 54 29 72 39 SW 992,5 10 0,0
25.10.2020 00:00:00 - - - - - - - - - -
24.10.2020 23:00:00 11,1 7,0 50 27 59 32 SW 992,9 12 0,0
24.10.2020 22:00:00 11,6 8,4 37 20 48 26 SW 992,8 14 0,2
24.10.2020 21:00:00 10,5 8,0 31 17 65 35 WSW 992,9 16 2,4
24.10.2020 20:00:00 9,8 8,2 35 19 76 41 WSW 993,1 12 0,2
24.10.2020 19:00:00 11,5 10,6 24 13 - - SW 992,8 15 0,0
24.10.2020 18:00:00 10,0 9,0 13 7 - - W 992,8 16 0,0
24.10.2020 17:00:00 11,0 9,8 22 12 - - WSW 992,8 15 0,0
24.10.2020 16:00:00 10,5 9,7 26 14 55 30 W 992,6 12 2,0
24.10.2020 15:00:00 11,0 11,0 54 29 78 42 SW 992,5 0,6 7,2
24.10.2020 14:00:00 12,8 12,6 54 29 65 35 S 992,7 2,3 4,6
24.10.2020 13:00:00 12,6 12,0 46 25 55 30 S 994,1 2,5 2,0
24.10.2020 12:00:00 12,6 11,9 44 24 57 31 SW 995,8 2,9 0,8
24.10.2020 11:00:00 13,0 12,2 50 27 63 34 SW 996,9 3,9 0,4
24.10.2020 10:00:00 13,0 12,5 42 23 61 33 SW 997,4 6 0,4
24.10.2020 09:00:00 12,5 12,4 44 24 80 43 SSW 997,6 3,2 3,6
24.10.2020 08:00:00 13,9 13,5 65 35 80 43 SSW 997,8 5 0,0
24.10.2020 07:00:00 13,4 13,3 63 34 76 41 SSW 998,7 6 0,2
24.10.2020 06:00:00 12,7 12,7 57 31 80 43 S 999,5 1,0 1,0
24.10.2020 05:00:00 13,2 11,7 61 33 78 42 SSW 1000,6 3,8 0,0
24.10.2020 04:00:00 13,1 10,9 63 34 74 40 SSW 1002,0 10 0,0
24.10.2020 03:00:00 12,9 10,6 55 30 68 37 S 1003,0 10 0,0
24.10.2020 02:00:00 13,1 9,7 57 31 68 37 SSW 1004,0 11 0,0
24.10.2020 01:00:00 12,4 10,2 42 23 74 40 SSW 1005,0 12 0,0
24.10.2020 00:00:00 12,7 9,6 48 26 59 32 SSW 1005,9 12 0,0
23.10.2020 23:00:00 12,5 8,2 50 27 61 33 SSW 1006,9 14 0,0
23.10.2020 22:00:00 12,1 7,3 41 22 52 28 SSW 1007,5 22 0,0
23.10.2020 21:00:00 12,0 7,2 39 21 48 26 SW 1007,9 20 0,0
23.10.2020 20:00:00 11,6 7,5 37 20 52 28 WSW 1008,3 11 0,0
23.10.2020 19:00:00 11,0 8,0 31 17 - - SW 1008,5 19 0,0
23.10.2020 18:00:00 11,5 6,7 28 15 - - W 1008,4 26 0,0
23.10.2020 17:00:00 11,5 6,2 29 16 - - WSW 1008,3 30 0,0
23.10.2020 16:00:00 12,2 6,7 28 15 - - W 1008,2 25 0,0
23.10.2020 15:00:00 12,5 6,3 31 17 - - W 1007,9 21 0,0
23.10.2020 14:00:00 12,4 6,4 29 16 - - W 1007,6 21 0,0
23.10.2020 13:00:00 12,9 7,7 24 13 - - W 1007,3 24 0,0
23.10.2020 12:00:00 12,7 7,1 31 17 - - WNW 1007,1 29 0,0
23.10.2020 11:00:00 11,6 8,9 34 18 52 28 W 1006,4 21 0,0
23.10.2020 10:00:00 12,4 10,6 37 20 55 30 W 1005,3 19 1,0
23.10.2020 09:00:00 11,3 10,8 41 22 54 29 SW 1005,6 3,0 2,0
23.10.2020 08:00:00 11,7 9,8 39 21 46 25 SSW 1005,4 8 0,0
23.10.2020 07:00:00 11,9 8,3 37 20 46 25 SW 1005,4 30 0,0
23.10.2020 06:00:00 11,7 7,8 31 17 - - SW 1005,5 40 0,0
23.10.2020 05:00:00 11,5 8,0 28 15 - - SW 1005,8 50 0,0
23.10.2020 04:00:00 11,4 8,1 24 13 - - SW 1006,1 50 0,0
23.10.2020 03:00:00 9,1 8,2 11 6 - - ESE 1006,5 30 0,0
23.10.2020 02:00:00 8,2 6,8 9 5 - - E 1007,3 35 0,0
23.10.2020 01:00:00 7,6 5,5 11 6 - - E 1007,8 45 0,0
23.10.2020 00:00:00 7,9 5,4 8 4 59 32 E 1008,4 35 0,0
22.10.2020 23:00:00 7,1 6,3 5 3 - - ENE 1008,8 35 0,0
22.10.2020 22:00:00 5,7 5,7 5 3 - - ENE 1009,2 40 0,0
22.10.2020 21:00:00 4,5 3,8 5 3 - - ENE 1009,5 29 0,0
22.10.2020 20:00:00 6,2 4,4 5 3 - - NE 1009,6 40 0,0
22.10.2020 19:00:00 8,6 5,2 8 4 - - NW 1009,9 45 0,0
22.10.2020 18:00:00 10,6 5,3 15 8 - - W 1009,6 50 0,0
22.10.2020 17:00:00 11,1 5,8 15 8 - - W 1009,5 45 0,0
22.10.2020 16:00:00 11,4 5,8 18 10 - - W 1009,3 55 0,0
22.10.2020 15:00:00 12,3 6,4 22 12 - - WSW 1009,1 45 0,0
22.10.2020 14:00:00 12,6 5,6 24 13 - - WSW 1009,0 45 0,0

tt = Température de l'air
td = dewpoint
ff = Vitesse du vent
fx = gusts
dd = Direction du vent
ppp = reduced air pressure
vv = visibility
rr = Quantités de précipitations

stations d'obs. à proximité